�������l�o���
Date,Time,MP-1(��Sv/h),MP-2(��Sv/h),MP-3(��Sv/h),MP-4(��Sv/h),MP-5(��Sv/h),MP-6(��Sv/h),MP-7(��Sv/h),MP-8(��Sv/h),����,����(m/s),���J
2019/08/28,00:00,0.770,1.080,0.749,1.340,0.983,0.430,0.750,0.707,��,4.7,�L
2019/08/28,00:10,0.769,1.079,0.750,1.339,0.984,0.432,0.750,0.706,��,4.5,�L
2019/08/28,00:20,0.769,1.077,0.748,1.339,0.983,0.430,0.750,0.708,��,5.2,�L
2019/08/28,00:30,0.768,1.079,0.749,1.339,0.984,0.430,0.750,0.707,��,4.2,�L
2019/08/28,00:40,0.769,1.077,0.749,1.338,0.981,0.431,0.750,0.707,��,5.0,�L
2019/08/28,00:50,0.768,1.077,0.749,1.340,0.984,0.432,0.750,0.706,��,5.2,�L
2019/08/28,01:00,0.770,1.077,0.750,1.339,0.979,0.429,0.751,0.706,��,5.9,�L
2019/08/28,01:10,0.767,1.072,0.746,1.336,0.980,0.431,0.749,0.706,��,4.9,�L
2019/08/28,01:20,0.766,1.074,0.747,1.336,0.979,0.430,0.748,0.707,��,4.7,�L
2019/08/28,01:30,0.766,1.073,0.747,1.336,0.977,0.429,0.747,0.704,��,4.3,�L
2019/08/28,01:40,0.764,1.071,0.745,1.335,0.976,0.430,0.747,0.705,��,5.1,�L
2019/08/28,01:50,0.764,1.068,0.744,1.333,0.975,0.428,0.747,0.704,��,5.3,�L
2019/08/28,02:00,0.763,1.065,0.744,1.333,0.972,0.429,0.746,0.706,��,3.9,�L
2019/08/28,02:10,0.761,1.064,0.743,1.331,0.969,0.430,0.748,0.703,��,4.0,�L
2019/08/28,02:20,0.761,1.061,0.742,1.328,0.967,0.430,0.745,0.702,��,3.3,�L
2019/08/28,02:30,0.760,1.059,0.741,1.325,0.965,0.430,0.745,0.703,��쓌,2.6,�L
2019/08/28,02:40,0.758,1.055,0.739,1.322,0.964,0.429,0.743,0.700,��쓌,2.6,�L
2019/08/28,02:50,0.758,1.050,0.737,1.317,0.957,0.427,0.742,0.701,��,1.9,�L
2019/08/28,03:00,0.754,1.036,0.731,1.300,0.949,0.424,0.738,0.698,��,4.3,�L
2019/08/28,03:10,0.751,1.033,0.731,1.294,0.947,0.425,0.735,0.695,��쓌,5.4,�L
2019/08/28,03:20,0.748,1.028,0.729,1.288,0.948,0.427,0.736,0.696,��쓌,6.1,�L
2019/08/28,03:30,0.752,1.033,0.728,1.291,0.952,0.426,0.736,0.698,��쓌,4.7,�L
2019/08/28,03:40,0.751,1.035,0.729,1.292,0.951,0.424,0.735,0.697,��쓌,5.8,�L
2019/08/28,03:50,0.751,1.036,0.728,1.292,0.950,0.425,0.736,0.696,��쓌,8.1,�L
2019/08/28,04:00,0.749,1.037,0.726,1.293,0.949,0.424,0.735,0.696,��,8.0,�L
2019/08/28,04:10,0.748,1.035,0.726,1.292,0.949,0.424,0.737,0.696,��,6.9,�L
2019/08/28,04:20,0.746,1.032,0.728,1.286,0.944,0.424,0.735,0.694,��,7.1,�L
2019/08/28,04:30,0.744,1.029,0.726,1.286,0.943,0.425,0.735,0.693,��,7.9,�L
2019/08/28,04:40,0.743,1.026,0.723,1.283,0.940,0.421,0.733,0.692,��,6.4,�L
2019/08/28,04:50,0.742,1.023,0.721,1.280,0.937,0.422,0.731,0.694,��,6.6,�L
2019/08/28,05:00,0.737,1.021,0.716,1.277,0.934,0.421,0.732,0.692,��,6.0,�L
2019/08/28,05:10,0.738,1.019,0.720,1.275,0.934,0.420,0.731,0.690,��,5.2,�L
2019/08/28,05:20,0.740,1.021,0.717,1.277,0.934,0.420,0.731,0.691,��쓌,6.3,�L
2019/08/28,05:30,0.740,1.022,0.718,1.276,0.936,0.422,0.731,0.692,��쓌,6.6,�L
2019/08/28,05:40,0.739,1.025,0.717,1.278,0.938,0.422,0.731,0.691,��,6.7,��
2019/08/28,05:50,0.740,1.025,0.718,1.276,0.938,0.420,0.732,0.691,��,7.5,�L
2019/08/28,06:00,0.739,1.024,0.720,1.278,0.938,0.420,0.731,0.692,��,6.1,�L
2019/08/28,06:10,0.741,1.023,0.720,1.279,0.938,0.421,0.732,0.691,��,5.6,�L
2019/08/28,06:20,0.740,1.025,0.719,1.281,0.937,0.420,0.730,0.692,��,6.1,�L
2019/08/28,06:30,0.739,1.026,0.718,1.281,0.937,0.422,0.731,0.691,��,6.0,�L
2019/08/28,06:40,0.739,1.026,0.721,1.279,0.938,0.421,0.730,0.691,��,5.6,�L
2019/08/28,06:50,0.740,1.024,0.720,1.280,0.936,0.421,0.731,0.692,��,6.5,�L
2019/08/28,07:00,0.739,1.021,0.719,1.277,0.934,0.421,0.730,0.690,��,6.0,�L
2019/08/28,07:10,0.739,1.022,0.717,1.277,0.935,0.421,0.729,0.691,��쓌,6.0,�L
2019/08/28,07:20,0.737,1.019,0.716,1.273,0.933,0.422,0.730,0.690,��쓌,5.6,�L
2019/08/28,07:30,0.739,1.019,0.718,1.274,0.933,0.424,0.732,0.690,��,4.2,�L
2019/08/28,07:40,0.739,1.021,0.715,1.275,0.932,0.422,0.730,0.692,��,3.9,�L
2019/08/28,07:50,0.740,1.020,0.715,1.276,0.935,0.421,0.730,0.690,��,2.3,�L
2019/08/28,08:00,0.738,1.023,0.716,1.274,0.935,0.423,0.730,0.692,��,3.1,�L
2019/08/28,08:10,0.737,1.020,0.715,1.275,0.936,0.422,0.730,0.692,��쐼,1.7,�L
2019/08/28,08:20,0.738,1.020,0.716,1.274,0.933,0.422,0.730,0.690,��,2.0,�L
2019/08/28,08:30,0.737,1.024,0.718,1.275,0.935,0.424,0.730,0.690,��,1.9,�L
2019/08/28,08:40,0.739,1.021,0.718,1.276,0.936,0.422,0.731,0.691,��쐼,0.9,�L
2019/08/28,08:50,0.739,1.024,0.717,1.277,0.935,0.420,0.730,0.691,��,0.6,��
2019/08/28,09:00,0.743,1.024,0.717,1.277,0.935,0.420,0.732,0.691,�k��,1.2,��
2019/08/28,09:10,0.739,1.023,0.716,1.277,0.935,0.422,0.730,0.690,�k,0.9,��
2019/08/28,09:20,0.739,1.023,0.719,1.278,0.936,0.420,0.732,0.692,�k,0.9,�L
2019/08/28,09:30,0.740,1.024,0.717,1.279,0.939,0.421,0.730,0.691,�k�k��,0.8,�L
2019/08/28,09:40,0.739,1.025,0.717,1.277,0.938,0.421,0.732,0.692,�k�k��,0.6,�L
2019/08/28,09:50,0.738,1.021,0.717,1.280,0.938,0.420,0.731,0.690,�k�k��,1.1,�L
2019/08/28,10:00,0.738,1.024,0.717,1.279,0.938,0.420,0.732,0.692,-,CALM,�L
2019/08/28,10:10,0.737,1.024,0.718,1.278,0.937,0.421,0.732,0.691,-,CALM,��
2019/08/28,10:20,0.737,1.026,0.717,1.278,0.940,0.421,0.732,0.689,�k��,1.7,��
2019/08/28,10:30,0.738,1.025,0.716,1.280,0.938,0.423,0.732,0.690,���쓌,0.9,��
2019/08/28,10:40,0.738,1.025,0.719,1.279,0.936,0.419,0.734,0.690,�쓌,0.6,��
2019/08/28,10:50,0.740,1.025,0.717,1.280,0.940,0.420,0.734,0.691,��쓌,1.2,��
2019/08/28,11:00,0.739,1.026,0.717,1.278,0.938,0.423,0.734,0.691,��쓌,0.8,��
2019/08/28,11:10,0.739,1.029,0.716,1.281,0.942,0.423,0.734,0.691,���쓌,1.2,��
2019/08/28,11:20,0.739,1.027,0.716,1.279,0.941,0.421,0.735,0.692,��쓌,1.2,��
2019/08/28,11:30,0.742,1.030,0.717,1.279,0.944,0.422,0.736,0.692,���쓌,1.7,��
2019/08/28,11:40,0.743,1.031,0.718,1.280,0.939,0.422,0.734,0.694,���쓌,1.2,��
2019/08/28,11:50,0.740,1.032,0.717,1.278,0.942,0.422,0.736,0.693,�쓌,1.5,�L
2019/08/28,12:00,0.741,1.029,0.719,1.279,0.942,0.422,0.735,0.694,��,0.9,�L
2019/08/28,12:10,0.742,1.030,0.719,1.281,0.944,0.424,0.735,0.694,��,0.9,�L
2019/08/28,12:20,0.743,1.030,0.720,1.279,0.943,0.424,0.737,0.693,���k��,0.6,�L
2019/08/28,12:30,0.743,1.031,0.720,1.280,0.939,0.424,0.733,0.692,���k��,0.9,�L
2019/08/28,12:40,0.742,1.030,0.719,1.280,0.942,0.423,0.735,0.695,���k��,1.7,�L
2019/08/28,12:50,0.743,1.031,0.717,1.282,0.944,0.422,0.735,0.693,���k��,1.2,�L
2019/08/28,13:00,0.740,1.031,0.719,1.284,0.944,0.422,0.734,0.693,��,0.8,�L
2019/08/28,13:10,0.741,1.029,0.720,1.283,0.943,0.422,0.734,0.693,��,0.9,�L
2019/08/28,13:20,0.742,1.029,0.720,1.286,0.945,0.422,0.734,0.695,�k�k��,1.5,��
2019/08/28,13:30,0.741,1.030,0.720,1.283,0.942,0.422,0.735,0.694,�k��,1.4,�L
2019/08/28,13:40,0.741,1.030,0.720,1.284,0.944,0.421,0.734,0.694,�k�k��,1.9,��
2019/08/28,13:50,0.741,1.030,0.719,1.282,0.945,0.423,0.734,0.694,�k�k��,2.5,��
2019/08/28,14:00,0.742,1.030,0.717,1.284,0.943,0.420,0.735,0.692,�k�k��,3.2,�L
2019/08/28,14:10,0.743,1.032,0.720,1.285,0.942,0.423,0.736,0.694,�k,3.9,�L
2019/08/28,14:20,0.745,1.030,0.718,1.286,0.944,0.423,0.737,0.694,�k�k��,2.8,�L
2019/08/28,14:30,0.745,1.033,0.719,1.288,0.944,0.423,0.735,0.694,�k,3.2,�L
2019/08/28,14:40,0.742,1.033,0.720,1.285,0.944,0.424,0.735,0.693,�k,1.9,�L
2019/08/28,14:50,0.743,1.026,0.719,1.282,0.941,0.423,0.736,0.693,���k��,1.2,�L
2019/08/28,15:00,0.741,1.022,0.719,1.282,0.940,0.424,0.733,0.694,�k�k��,2.3,�L
2019/08/28,15:10,0.739,1.024,0.717,1.281,0.938,0.424,0.734,0.693,�k,2.3,�L
2019/08/28,15:20,0.739,1.023,0.717,1.280,0.938,0.425,0.734,0.691,�k,2.6,�L
2019/08/28,15:30,0.741,1.024,0.717,1.281,0.939,0.423,0.733,0.693,�k,2.6,�L
2019/08/28,15:40,0.740,1.025,0.718,1.281,0.937,0.422,0.732,0.692,�k,1.5,�L
2019/08/28,15:50,0.741,1.025,0.717,1.283,0.939,0.423,0.736,0.692,�k,1.7,�L
2019/08/28,16:00,0.740,1.023,0.715,1.280,0.938,0.422,0.731,0.693,�k,1.9,�L
2019/08/28,16:10,0.739,1.025,0.720,1.281,0.937,0.422,0.732,0.692,�k,1.7,�L
2019/08/28,16:20,0.740,1.025,0.718,1.279,0.937,0.422,0.733,0.693,�k��,0.8,�L
2019/08/28,16:30,0.738,1.027,0.717,1.279,0.938,0.422,0.733,0.692,�쓌,0.6,�L
2019/08/28,16:40,0.741,1.026,0.716,1.279,0.938,0.420,0.733,0.692,���쓌,1.2,��
2019/08/28,16:50,0.740,1.024,0.719,1.277,0.937,0.420,0.733,0.693,���쓌,0.8,��
2019/08/28,17:00,0.737,1.023,0.717,1.278,0.938,0.420,0.733,0.692,-,CALM,��
2019/08/28,17:10,0.738,1.024,0.716,1.280,0.938,0.419,0.733,0.692,-,CALM,��
2019/08/28,17:20,0.739,1.025,0.716,1.277,0.938,0.419,0.734,0.693,���쓌,1.2,��
2019/08/28,17:30,0.738,1.025,0.718,1.279,0.936,0.420,0.732,0.691,�쓌,1.7,��
2019/08/28,17:40,0.739,1.025,0.715,1.278,0.938,0.419,0.731,0.694,��쓌,1.7,��
2019/08/28,17:50,0.738,1.025,0.716,1.278,0.936,0.420,0.732,0.694,��,2.9,�L
2019/08/28,18:00,0.737,1.022,0.717,1.278,0.936,0.420,0.733,0.692,��,3.1,��
2019/08/28,18:10,0.737,1.025,0.716,1.278,0.936,0.420,0.733,0.691,��,2.6,��
2019/08/28,18:20,0.737,1.024,0.718,1.281,0.939,0.419,0.733,0.693,��쐼,2.6,��
2019/08/28,18:30,0.739,1.026,0.718,1.278,0.936,0.420,0.733,0.691,��,3.4,��
2019/08/28,18:40,0.739,1.027,0.717,1.277,0.936,0.419,0.733,0.693,��,4.2,��
2019/08/28,18:50,0.739,1.024,0.718,1.280,0.937,0.420,0.734,0.693,��쐼,4.4,��
2019/08/28,19:00,0.737,1.026,0.716,1.278,0.938,0.420,0.732,0.692,��,5.6,��
2019/08/28,19:10,0.738,1.025,0.718,1.278,0.937,0.420,0.736,0.693,��쐼,3.9,��
2019/08/28,19:20,0.739,1.027,0.717,1.277,0.938,0.419,0.734,0.694,��쐼,3.0,��
2019/08/28,19:30,0.739,1.025,0.717,1.280,0.938,0.418,0.734,0.693,��,2.8,��
2019/08/28,19:40,0.739,1.024,0.719,1.281,0.939,0.422,0.735,0.694,��쐼,3.4,��
2019/08/28,19:50,0.738,1.025,0.718,1.281,0.940,0.421,0.733,0.695,��쐼,3.3,��
2019/08/28,20:00,0.739,1.024,0.718,1.279,0.940,0.420,0.734,0.695,��쐼,3.4,��
2019/08/28,20:10,0.739,1.025,0.719,1.279,0.938,0.422,0.733,0.694,��쐼,3.1,��
2019/08/28,20:20,0.741,1.027,0.720,1.279,0.941,0.422,0.734,0.695,��쐼,2.6,��
2019/08/28,20:30,0.741,1.026,0.718,1.279,0.941,0.422,0.733,0.694,��,2.5,��
2019/08/28,20:40,0.740,1.028,0.719,1.280,0.940,0.423,0.734,0.696,��쐼,3.2,��
2019/08/28,20:50,0.741,1.027,0.719,1.282,0.941,0.422,0.734,0.695,�쐼,3.7,��
2019/08/28,21:00,0.742,1.030,0.719,1.279,0.941,0.422,0.735,0.695,��쐼,4.2,��
2019/08/28,21:10,0.741,1.030,0.719,1.282,0.940,0.424,0.733,0.695,��쐼,3.3,��
2019/08/28,21:20,0.742,1.029,0.717,1.282,0.939,0.425,0.735,0.694,��쐼,3.6,��
2019/08/28,21:30,0.740,1.027,0.718,1.280,0.940,0.423,0.735,0.696,�쐼,1.4,��
2019/08/28,21:40,0.743,1.028,0.719,1.279,0.941,0.423,0.735,0.695,��쐼,1.4,��
2019/08/28,21:50,0.742,1.031,0.718,1.282,0.942,0.422,0.733,0.695,�쐼,2.3,��
2019/08/28,22:00,0.742,1.029,0.719,1.281,0.942,0.423,0.734,0.694,��,1.4,��
2019/08/28,22:10,0.742,1.027,0.722,1.281,0.941,0.423,0.734,0.696,��쐼,2.5,��
2019/08/28,22:20,0.741,1.029,0.719,1.281,0.942,0.424,0.735,0.696,��쐼,2.2,��
2019/08/28,22:30,0.742,1.028,0.719,1.280,0.943,0.423,0.734,0.694,�쐼,2.6,��
2019/08/28,22:40,0.740,1.030,0.720,1.280,0.941,0.422,0.736,0.695,�쐼,1.9,��
2019/08/28,22:50,0.740,1.029,0.720,1.282,0.941,0.424,0.735,0.696,��,1.7,��
2019/08/28,23:00,0.742,1.031,0.719,1.282,0.943,0.424,0.733,0.695,��,2.5,��
2019/08/28,23:10,0.742,1.031,0.719,1.284,0.943,0.423,0.734,0.695,��쐼,2.6,��
2019/08/28,23:20,0.742,1.029,0.721,1.283,0.941,0.424,0.735,0.695,��쐼,2.3,��
2019/08/28,23:30,0.742,1.031,0.719,1.282,0.941,0.422,0.736,0.695,��,1.9,��
2019/08/28,23:40,0.741,1.029,0.721,1.283,0.941,0.421,0.734,0.695,�쐼,1.7,��
2019/08/28,23:50,0.744,1.030,0.719,1.282,0.942,0.424,0.735,0.695,��,1.1,��
